KR4KUV Weather Reports


time (UTC)temp
F
wind
direction
speed
knots
gust
knots
rain 1hr
in
rain 24hr
in
rain mn
in
humidity
%
barometer
mb
20260906061114 69 266 0.0 0.0 0.00 0.00 0.00 99 1013.4
20260906060611 69 266 0.0 0.0 0.00 0.00 0.00 99 1013.7
20260906060108 69 266 0.0 0.0 0.00 0.00 0.00 99 1013.5
20260906055603 69 266 0.0 0.0 0.00 0.00 0.00 99 1013.7
20260906055059 69 266 0.0 0.0 0.00 0.00 0.00 99 1013.6
20260906054558 69 266 0.0 0.0 0.00 0.00 0.00 99 1013.7
20260906054054 69 266 0.0 0.0 0.00 0.00 0.00 99 1013.7
20260906053550 69 266 0.0 0.0 0.00 0.00 0.00 99 1013.8
20260906053045 69 266 0.0 0.0 0.00 0.00 0.00 99 1014.1
20260906052541 69 266 0.0 0.0 0.00 0.00 0.00 99 1013.8
20260906052038 69 266 0.0 0.0 0.00 0.00 0.00 99 1013.9
20260906051533 69 266 0.0 0.0 0.00 0.00 0.00 99 1014.0
20260906051029 69 265 0.0 0.0 0.00 0.00 0.00 99 1014.3
20260906050524 69 265 0.0 0.0 0.00 0.00 0.00 99 1014.3
20260906050018 70 267 0.0 0.0 0.00 0.00 0.00 99 1014.3
20260906045517 70 268 0.0 0.0 0.00 0.00 0.00 99 1013.9
20260906045013 70 268 0.0 0.0 0.00 0.00 0.00 99 1013.9
20260906044508 70 268 0.0 0.0 0.00 0.00 0.00 99 1014.3
20260906044004 70 268 0.0 0.0 0.00 0.00 0.00 99 1014.1
20260906043459 70 268 0.0 0.0 0.00 0.00 0.00 99 1014.3
20260906042955 70 268 0.0 0.0 0.00 0.00 0.00 99 1014.4
20260906042454 70 268 0.0 0.0 0.00 0.00 0.00 99 1014.3
20260906041953 70 268 0.0 0.0 0.00 0.00 0.00 99 1014.4
20260906041450 70 268 0.0 0.0 0.00 0.00 0.00 99 1014.5
20260906040949 70 268 0.0 0.0 0.00 0.00 0.00 99 1014.6
20260906040444 70 268 0.0 0.0 0.00 0.00 0.00 99 1014.6
20260906035940 70 269 0.0 0.0 0.00 0.02 0.02 99 1014.5
20260906035435 70 269 0.0 0.0 0.00 0.02 0.02 99 1014.5
20260906034931 70 269 0.0 0.0 0.00 0.02 0.02 99 1014.5
20260906034425 70 268 0.0 0.0 0.00 0.02 0.02 99 1014.6
20260906033920 70 268 0.0 0.0 0.00 0.02 0.02 99 1014.7
20260906033415 70 267 0.0 0.0 0.00 0.02 0.02 99 1014.8
20260906032911 70 268 0.0 0.0 0.00 0.02 0.02 99 1014.6
20260906032407 70 270 0.0 0.0 0.00 0.02 0.02 99 1014.6
20260906031907 70 270 0.0 0.0 0.00 0.02 0.02 99 1014.6
20260906031403 70 270 0.0 0.0 0.00 0.02 0.02 99 1014.6
20260906030857 70 270 0.0 0.0 0.00 0.02 0.02 99 1014.8
20260906030353 70 270 0.0 0.0 0.00 0.02 0.02 99 1014.7
20260906025853 70 270 0.0 0.0 0.00 0.02 0.02 99 1014.8
20260906025347 70 270 0.0 0.0 0.00 0.02 0.02 99 1015.0
20260906024846 71 270 0.0 0.0 0.00 0.02 0.02 99 1014.6
20260906024345 71 270 0.0 0.0 0.00 0.02 0.02 99 1014.8
20260906023840 71 270 0.0 0.0 0.00 0.02 0.02 99 1014.6
20260906023337 71 270 0.0 0.0 0.00 0.02 0.02 99 1014.6
20260906022832 71 270 0.0 0.0 0.00 0.02 0.02 98 1014.5
20260906022326 71 270 0.0 0.0 0.00 0.02 0.02 98 1014.5
20260906021822 71 270 0.0 0.0 0.00 0.02 0.02 98 1014.3
20260906021321 71 269 0.0 0.0 0.00 0.02 0.02 98 1014.3
20260906020816 71 270 0.0 0.0 0.00 0.02 0.02 98 1014.4
20260906020315 71 273 0.0 0.0 0.00 0.02 0.02 98 1014.3
20260906015810 72 272 0.0 0.0 0.00 0.02 0.02 98 1014.0
20260906015308 72 274 0.0 0.0 0.00 0.02 0.02 98 1014.1
20260906014803 72 274 0.0 0.0 0.00 0.02 0.02 97 1014.3
20260906014259 72 273 0.0 0.0 0.00 0.02 0.02 97 1013.9
20260906013754 72 305 0.0 0.0 0.00 0.02 0.02 97 1014.0
20260906013249 72 311 0.0 0.0 0.00 0.02 0.02 97 1013.9
20260906012745 72 286 0.0 0.0 0.00 0.02 0.02 97 1013.7
20260906012239 72 286 0.0 0.0 0.00 0.02 0.02 97 1013.9
20260906011735 72 286 0.0 0.0 0.00 0.02 0.02 97 1013.8
20260906011229 72 286 0.0 0.0 0.00 0.02 0.02 96 1014.0
20260906010724 72 286 0.0 0.0 0.00 0.02 0.02 96 1013.9
20260906010221 73 286 0.0 0.0 0.00 0.02 0.02 96 1013.7
20260906005715 73 286 0.0 0.0 0.00 0.02 0.02 96 1013.8
20260906005215 73 286 0.0 0.0 0.00 0.02 0.02 95 1013.9
20260906004714 73 265 0.0 0.0 0.00 0.02 0.02 95 1013.8
20260906004209 73 261 0.0 0.0 0.00 0.02 0.02 95 1013.8
20260906003704 73 243 0.0 0.0 0.00 0.02 0.02 95 1013.7
20260906003159 73 247 0.0 0.0 0.00 0.02 0.02 95 1013.7
20260906002654 74 246 0.0 0.0 0.00 0.02 0.02 95 1013.9
20260906002149 74 245 0.0 0.0 0.00 0.02 0.02 94 1013.8
20260906001644 74 235 0.0 0.0 0.00 0.02 0.02 94 1013.4
20260906001144 74 243 0.0 0.0 0.00 0.02 0.02 93 1013.7
20260906000639 75 270 0.0 0.0 0.00 0.02 0.02 92 1013.6
20260906000135 75 266 0.0 0.0 0.00 0.02 0.02 92 1013.5
20260905235633 75 258 0.0 0.0 0.00 0.02 0.02 91 1013.4
20260905235129 75 254 0.0 0.0 0.00 0.02 0.02 91 1013.3
20260905234624 76 265 0.0 0.0 0.00 0.02 0.02 90 1013.3
20260905234120 76 266 0.0 0.0 0.00 0.02 0.02 90 1013.1
20260905233614 76 263 0.0 0.0 0.00 0.02 0.02 89 1013.2
20260905233108 77 263 0.0 0.0 0.00 0.02 0.02 87 1012.8
20260905232604 77 272 0.0 0.0 0.00 0.02 0.02 86 1013.1
20260905232100 78 275 0.0 0.0 0.00 0.02 0.02 84 1012.9
20260905231554 78 275 0.0 0.0 0.00 0.02 0.02 84 1013.0
20260905231051 78 275 0.0 0.0 0.00 0.02 0.02 83 1012.9
20260905230551 79 275 0.0 0.0 0.00 0.02 0.02 81 1012.8
20260905230049 80 275 0.0 0.0 0.00 0.02 0.02 78 1012.9
20260905225549 80 277 0.0 0.0 0.00 0.02 0.02 78 1012.8
20260905225044 80 249 0.0 0.9 0.00 0.02 0.02 77 1013.0
20260905224544 80 281 0.0 0.0 0.00 0.02 0.02 78 1012.9
20260905224043 79 288 0.0 0.0 0.00 0.02 0.02 78 1012.9
20260905223541 79 265 0.0 0.0 0.00 0.02 0.02 82 1012.9
20260905223036 79 250 0.0 0.0 0.00 0.02 0.02 83 1012.7
20260905222531 79 252 0.0 0.0 0.00 0.02 0.02 83 1012.8
20260905222026 78 249 0.0 0.0 0.00 0.02 0.02 82 1012.5
20260905221523 79 266 0.0 0.0 0.00 0.02 0.02 84 1012.6
20260905221018 79 243 0.0 1.7 0.00 0.02 0.02 80 1012.7
20260905220514 80 217 0.0 0.0 0.00 0.02 0.02 81 1013.0
20260905220010 79 269 0.0 0.0 0.00 0.02 0.02 79 1013.1
20260905215504 79 261 0.0 0.0 0.00 0.02 0.02 81 1012.8
20260905215000 78 260 0.0 0.0 0.00 0.02 0.02 81 1012.9
20260905214456 79 254 0.0 0.0 0.00 0.02 0.02 81 1013.1
20260905213956 79 238 0.9 1.7 0.00 0.02 0.02 80 1013.0
20260905213452 78 183 1.7 2.6 0.00 0.02 0.02 80 1013.3
20260905212947 79 202 0.0 0.9 0.00 0.02 0.02 80 1013.3
20260905212442 78 246 0.0 0.9 0.00 0.02 0.02 82 1013.4
20260905211941 77 232 0.0 1.7 0.00 0.02 0.02 82 1013.4
20260905211437 75 187 0.0 0.9 0.00 0.02 0.02 85 1013.4
20260905210932 74 259 0.9 0.9 0.00 0.02 0.02 88 1013.5
20260905210427 73 266 0.0 0.9 0.00 0.02 0.02 89 1013.7
20260905205926 72 274 0.0 0.0 0.00 0.02 0.02 91 1013.7
20260905205421 72 263 0.0 0.9 0.00 0.02 0.02 92 1013.9
20260905204920 72 255 0.0 0.0 0.00 0.02 0.02 92 1013.7
20260905204416 71 256 0.0 0.9 0.00 0.02 0.02 93 1013.8
20260905203915 71 177 0.0 0.9 0.00 0.02 0.02 93 1013.9
20260905203411 71 241 0.0 0.0 0.00 0.02 0.02 93 1013.9
20260905202906 71 266 0.0 1.7 0.05 0.02 0.02 92 1013.8
20260905202401 72 265 0.0 0.0 0.00 0.01 0.01 90 1014.0
20260905201856 73 149 0.9 1.7 0.07 0.01 0.01 88 1014.3
20260905201352 73 268 0.0 0.0 0.07 0.01 0.01 86 1014.5
20260905200846 74 248 0.0 0.9 0.00 0.00 0.00 83 1014.7
20260905200342 74 152 1.7 2.6 0.00 0.00 0.00 82 1014.1
20260905195840 74 274 0.9 1.7 0.00 0.00 0.00 82 1014.0
20260905195335 74 316 0.0 0.9 0.00 0.00 0.00 79 1013.8
20260905194831 74 331 0.0 0.9 0.00 0.00 0.00 81 1014.0
20260905194331 75 276 0.9 1.7 0.00 0.00 0.00 77 1013.7
20260905193830 76 210 2.6 4.3 0.00 0.00 0.00 75 1013.5
20260905193325 78 198 3.5 5.2 0.00 0.00 0.00 71 1013.8
20260905192821 81 163 7.8 9.6 0.00 0.00 0.00 67 1013.4
20260905192317 85 90 1.7 5.2 0.00 0.00 0.00 64 1013.2
20260905191815 90 144 2.6 2.6 0.00 0.00 0.00 70 1013.5
20260905191314 91 266 0.0 0.0 0.00 0.00 0.00 67 1013.2
20260905190813 92 266 0.0 0.0 0.00 0.00 0.00 67 1012.8
20260905190307 93 266 0.0 0.0 0.00 0.00 0.00 63 1012.9
20260905185806 94 239 0.9 1.7 0.00 0.00 0.00 55 1012.7
20260905185301 95 178 0.9 0.9 0.00 0.00 0.00 51 1012.8
20260905184800 96 266 0.0 0.0 0.00 0.00 0.00 56 1013.1
20260905184254 97 238 0.0 0.9 0.00 0.00 0.00 57 1013.2
20260905183753 98 247 0.9 1.7 0.00 0.00 0.00 52 1013.1
20260905183248 96 217 0.0 1.7 0.00 0.00 0.00 52 1013.1
20260905182748 95 222 0.0 0.9 0.00 0.00 0.00 56 1013.2
20260905182242 95 261 0.0 0.0 0.00 0.00 0.00 57 1013.3
20260905181737 96 172 1.7 2.6 0.00 0.00 0.00 55 1013.3
20260905181236 97 246 0.0 0.9 0.00 0.00 0.00 53 1013.2
20260905180731 96 175 0.9 1.7 0.00 0.00 0.00 55 1013.5
20260905180226 95 229 0.0 1.7 0.00 0.00 0.00 55 1013.7
20260905175721 97 249 0.0 0.9 0.00 0.00 0.00 53 1013.8
20260905175216 94 246 0.0 0.9 0.00 0.00 0.00 58 1013.9
20260905174711 95 261 0.0 0.9 0.00 0.00 0.00 56 1014.0
20260905174207 96 339 0.0 0.9 0.00 0.00 0.00 52 1014.3
20260905173703 95 213 0.9 0.9 0.00 0.00 0.00 54 1014.1
20260905173158 95 271 0.0 0.0 0.00 0.00 0.00 55 1014.5
20260905172657 96 194 0.0 0.9 0.00 0.00 0.00 54 1014.5
20260905172151 97 248 1.7 1.7 0.00 0.00 0.00 53 1014.6
20260905171648 97 165 0.0 1.7 0.00 0.00 0.00 54 1014.8
20260905171143 97 297 0.9 0.9 0.00 0.00 0.00 52 1014.6
20260905170640 96 282 0.9 2.6 0.00 0.00 0.00 53 1014.6
20260905170135 96 112 0.0 0.9 0.00 0.00 0.00 54 1014.9
20260905165635 96 244 0.9 1.7 0.00 0.00 0.00 54 1014.8
20260905165130 96 279 0.0 0.0 0.00 0.00 0.00 52 1015.1
20260905164625 97 266 0.9 1.7 0.00 0.00 0.00 57 1015.1
20260905164124 95 267 0.0 0.9 0.00 0.00 0.00 58 1015.3
20260905163621 95 291 0.9 0.9 0.00 0.00 0.00 58 1015.2
20260905163117 95 269 0.9 4.3 0.00 0.00 0.00 60 1015.3
20260905162613 94 330 0.0 0.9 0.00 0.00 0.00 59 1015.4
20260905162112 93 329 0.0 0.9 0.00 0.00 0.00 60 1015.5
20260905161612 93 227 0.9 1.7 0.00 0.00 0.00 64 1015.5
20260905161109 93 290 0.0 0.9 0.00 0.00 0.00 63 1015.4
20260905160609 92 305 0.0 0.9 0.00 0.00 0.00 64 1015.7
20260905155558 92 232 0.9 0.9 0.00 0.00 0.00 66 1015.6
20260905155056 91 316 0.0 0.0 0.00 0.00 0.00 69 1015.6
20260905154551 91 341 0.9 0.9 0.00 0.00 0.00 68 1015.6
20260905154047 91 72 0.0 1.7 0.00 0.00 0.00 68 1015.7
20260905153543 91 326 0.9 0.9 0.00 0.00 0.00 68 1015.8
20260905153043 90 284 0.0 0.0 0.00 0.00 0.00 72 1015.4
20260905152537 89 297 0.0 4.3 0.00 0.00 0.00 73 1015.6
20260905152033 89 273 0.0 0.0 0.00 0.00 0.00 72 1015.7
20260905151528 88 359 0.0 1.7 0.00 0.00 0.00 74 1015.8
20260905151023 88 224 0.9 1.7 0.00 0.00 0.00 74 1015.7
20260905150518 88 23 0.0 0.9 0.00 0.00 0.00 75 1015.7
20260905150016 87 228 0.0 0.0 0.00 0.00 0.00 76 1015.8
20260905145515 87 214 0.0 0.9 0.00 0.00 0.00 77 1015.9
20260905145009 86 28 0.0 0.9 0.00 0.00 0.00 77 1015.5
20260905144504 86 242 0.0 0.9 0.00 0.00 0.00 78 1015.8
20260905144003 85 219 0.9 0.9 0.00 0.00 0.00 78 1016.0
20260905143502 85 243 0.0 1.7 0.00 0.00 0.00 79 1015.8
20260905142957 84 249 0.9 2.6 0.00 0.00 0.00 80 1015.5
20260905142455 84 265 0.0 1.7 0.00 0.00 0.00 81 1015.7
20260905141951 84 228 0.0 0.9 0.00 0.00 0.00 82 1015.7
20260905141446 83 256 0.0 0.9 0.00 0.00 0.00 82 1015.8
20260905140942 83 261 0.0 0.9 0.00 0.00 0.00 83 1016.0
20260905140437 83 134 0.9 1.7 0.00 0.00 0.00 83 1015.8
20260905135936 82 265 0.0 0.9 0.00 0.00 0.00 84 1015.8
20260905135432 82 222 0.9 0.9 0.00 0.00 0.00 85 1015.9
20260905134927 82 246 0.9 1.7 0.00 0.00 0.00 86 1015.9
20260905134426 81 237 0.0 0.9 0.00 0.00 0.00 86 1016.0
20260905133921 81 246 0.0 0.0 0.00 0.00 0.00 87 1016.0
20260905133421 80 331 0.0 0.0 0.00 0.00 0.00 88 1016.1
20260905132921 80 250 0.0 1.7 0.00 0.00 0.00 88 1016.2
20260905132416 80 204 0.9 1.7 0.00 0.00 0.00 88 1016.1
20260905131910 79 235 0.9 1.7 0.00 0.00 0.00 89 1016.0
20260905131406 79 98 0.9 0.9 0.00 0.00 0.00 89 1016.1
20260905130907 78 162 1.7 2.6 0.00 0.00 0.00 90 1016.2
20260905130406 78 264 0.0 2.6 0.00 0.00 0.00 91 1015.9
20260905125901 78 211 0.0 2.6 0.00 0.00 0.00 91 1016.2
20260905125355 78 223 0.0 0.0 0.00 0.00 0.00 91 1016.3
20260905124851 77 231 0.0 0.0 0.00 0.00 0.00 92 1016.6
20260905124348 77 250 0.0 0.0 0.00 0.00 0.00 93 1016.6
20260905123848 76 248 0.0 0.0 0.00 0.00 0.00 94 1016.4
20260905123345 76 251 0.0 0.9 0.00 0.00 0.00 95 1016.4
20260905122844 75 275 0.0 0.9 0.00 0.00 0.00 96 1016.2
20260905122343 75 243 0.0 0.0 0.00 0.00 0.00 97 1016.3
20260905121839 74 246 0.0 0.0 0.00 0.00 0.00 99 1016.1
20260905121336 74 242 0.0 0.0 0.00 0.00 0.00 99 1016.2
20260905120834 74 242 0.0 0.0 0.00 0.00 0.00 99 1016.2
20260905120329 73 242 0.0 0.0 0.00 0.00 0.00 99 1016.2
20260905115824 73 242 0.0 0.0 0.00 0.00 0.00 99 1016.1
20260905115324 73 242 0.0 0.0 0.00 0.00 0.00 99 1016.1
20260905114824 73 242 0.0 0.0 0.00 0.00 0.00 99 1016.2
20260905114323 72 242 0.0 0.0 0.00 0.00 0.00 99 1016.1
20260905113822 72 242 0.0 0.0 0.00 0.00 0.00 99 1016.0
20260905113318 72 242 0.0 0.0 0.00 0.00 0.00 99 1016.0
20260905112813 72 242 0.0 0.0 0.00 0.00 0.00 99 1015.7
20260905112308 72 242 0.0 0.0 0.00 0.00 0.00 99 1015.6
20260905111803 72 242 0.0 0.0 0.00 0.00 0.00 99 1015.9
20260905111257 72 242 0.0 0.0 0.00 0.00 0.00 99 1015.6
20260905110756 72 242 0.0 0.0 0.00 0.00 0.00 99 1015.5
20260905110250 72 242 0.0 0.0 0.00 0.00 0.00 99 1015.2
20260905105746 72 242 0.0 0.0 0.00 0.00 0.00 99 1015.3
20260905105244 72 242 0.0 0.0 0.00 0.00 0.00 99 1015.3
20260905104739 72 242 0.0 0.0 0.00 0.00 0.00 99 1014.9
20260905104236 72 242 0.0 0.0 0.00 0.00 0.00 99 1015.1
20260905103730 72 242 0.0 0.0 0.00 0.00 0.00 99 1014.9
20260905103226 72 242 0.0 0.0 0.00 0.00 0.00 99 1014.8
20260905102722 72 242 0.0 0.0 0.00 0.00 0.00 99 1014.7
20260905102218 72 242 0.0 0.0 0.00 0.00 0.00 99 1014.7
20260905101717 72 242 0.0 0.0 0.00 0.00 0.00 99 1014.9
20260905101215 72 242 0.0 0.0 0.00 0.00 0.00 99 1014.6
20260905100712 72 242 0.0 0.0 0.00 0.00 0.00 99 1014.6
20260905100207 72 242 0.0 0.0 0.00 0.00 0.00 99 1014.5
20260905095706 72 242 0.0 0.0 0.00 0.00 0.00 99 1014.6
20260905095201 72 242 0.0 0.0 0.00 0.00 0.00 99 1014.5
20260905094656 72 242 0.0 0.0 0.00 0.00 0.00 99 1014.6
20260905094155 72 242 0.0 0.0 0.00 0.00 0.00 99 1014.6
20260905093649 72 242 0.0 0.0 0.00 0.00 0.00 99 1014.6
20260905093146 72 242 0.0 0.0 0.00 0.00 0.00 99 1014.7
20260905092646 72 242 0.0 0.0 0.00 0.00 0.00 99 1014.5
20260905092142 72 242 0.0 0.0 0.00 0.00 0.00 99 1014.7
20260905091636 72 242 0.0 0.0 0.00 0.00 0.00 99 1014.6
20260905091136 72 242 0.0 0.0 0.00 0.00 0.00 99 1014.6
20260905090630 72 242 0.0 0.0 0.00 0.00 0.00 99 1014.6
20260905090126 72 242 0.0 0.0 0.00 0.00 0.00 99 1014.8
20260905085624 73 242 0.0 0.0 0.00 0.00 0.00 99 1014.7
20260905085120 73 242 0.0 0.0 0.00 0.00 0.00 99 1014.8
20260905084619 72 242 0.0 0.0 0.00 0.00 0.00 99 1014.8
20260905084109 73 242 0.0 0.0 0.00 0.00 0.00 99 1015.1
20260905083609 73 242 0.0 0.0 0.00 0.00 0.00 99 1014.8
20260905083106 73 242 0.0 0.0 0.00 0.00 0.00 99 1015.0
20260905082601 73 242 0.0 0.0 0.00 0.00 0.00 99 1015.2
20260905082057 73 242 0.0 0.0 0.00 0.00 0.00 99 1015.1
20260905081556 73 242 0.0 0.0 0.00 0.00 0.00 99 1015.2
20260905081050 73 242 0.0 0.0 0.00 0.00 0.00 99 1015.3
20260905080544 73 242 0.0 0.0 0.00 0.00 0.00 99 1015.2
20260905080039 73 242 0.0 0.0 0.00 0.00 0.00 99 1015.3
20260905075532 73 242 0.0 0.0 0.00 0.00 0.00 99 1015.2
20260905075027 73 242 0.0 0.0 0.00 0.00 0.00 99 1015.2
20260905074521 73 242 0.0 0.0 0.00 0.00 0.00 99 1015.4
20260905074017 73 242 0.0 0.0 0.00 0.00 0.00 99 1015.5
20260905073506 73 242 0.0 0.0 0.00 0.00 0.00 99 1015.5
20260905073002 73 242 0.0 0.0 0.00 0.00 0.00 99 1015.3
20260905072456 73 242 0.0 0.0 0.00 0.00 0.00 99 1015.4
20260905071951 74 242 0.0 0.0 0.00 0.00 0.00 99 1015.7
20260905071449 73 242 0.0 0.0 0.00 0.00 0.00 99 1015.7
20260905070947 74 242 0.0 0.0 0.00 0.00 0.00 99 1015.5
20260905070444 73 242 0.0 0.0 0.00 0.00 0.00 99 1015.6
20260905065938 74 242 0.0 0.0 0.00 0.00 0.00 99 1015.8
20260905065436 74 242 0.0 0.0 0.00 0.00 0.00 99 1015.7
20260905064932 74 242 0.0 0.0 0.00 0.00 0.00 99 1016.0
20260905064426 74 242 0.0 0.0 0.00 0.00 0.00 99 1016.0
20260905063921 74 242 0.0 0.0 0.00 0.00 0.00 99 1016.0
20260905063416 74 242 0.0 0.0 0.00 0.00 0.00 99 1016.0
20260905062912 74 242 0.0 0.0 0.00 0.00 0.00 99 1016.1
20260905062406 74 241 0.0 0.0 0.00 0.00 0.00 99 1016.0
20260905061901 74 249 0.0 0.0 0.00 0.00 0.00 99 1016.0